Terminal Aerodrome Forecast
Issued by NWS

Home | Current Version | Previous Version | Text Only | Print | Product List | Glossary On
Versions: 1 2 3 4 5 6 7 8 9 10 11 12
000
FTUS45 KRIW 211100
TAFRKS
TAF
KRKS 211134Z 2112/2212 21015KT P6SM SCT060 BKN090
     FM211430 22017G25KT P6SM VCSH SCT035 BKN060
     FM211900 26018G28KT P6SM -SHRA SCT030 BKN050
     FM220100 28011G19KT P6SM SCT070 BKN120
     FM220400 25007KT P6SM SCT100=

USA.gov is the U.S. government's official web portal to all federal, state and local government web resources and services.